{"data":{"norad_id":67172,"epoch":"2026-09-20T10:10:15.554496Z","epoch_age_seconds":84818,"freshness":"FRESH","line1":"1 67172U 25303K   26263.42379114  .00016444  00000+0  60548-3 0  9990","line2":"2 67172  42.9998 291.2713 0000659 295.0086  65.0697 15.27594319 42512","mean_motion":15.27594319,"eccentricity":6.59e-5,"inclination_deg":42.9998,"raan_deg":291.2713,"arg_perigee_deg":295.0086,"mean_anomaly_deg":65.0697,"bstar":0.00060548,"rev_number":4251,"period_min":94.265865098442,"perigee_km":482.55407079913,"apogee_km":483.45836947555,"semimajor_km":6861.1432201373,"source":"CELESTRAK","updated_at":"2026-09-21T09:00:36.111966Z"}}